Regional Weather Roundup
Issued by NWS

Home | Current Version | Previous Version | Graphics & Text | Print | Product List | Glossary On
Versions: 1 2 3 4 5 6 7 8 9 10 11 12 13 14 15 16 17 18 19 20 21 22 23 24 25 26 27 28 29 30 31 32 33 34 35 36 37 38 39 40 41 42 43 44 45 46 47 48 49 50
000
ASUS43 KDMX 211801
RWRIA

WEATHER ROUNDUP FOR IOWA
NATIONAL WEATHER SERVICE DES MOINES IA
100 PM CDT WED JUN 21 2017

NOTE: "FAIR" INDICATES FEW OR NO CLOUDS BELOW 12,000 FEET WITH NO
SIGNIFICANT WEATHER AND/OR OBSTRUCTIONS TO VISIBILITY.

* - THESE STATIONS ARE NOT NWS STATIONS...THUS NOT UNDER NWS
QUALITY CONTROL.  THEY ALSO DO NOT REPORT WEATHER SUCH
AS PRECIPITATION OR FOG.

IAZ001>003-012>014-020>022-031>034-043>046-211900-
   NORTHWEST IOWA

CITY           SKY/WX    TMP DP  RH WIND       PRES   REMARKS
CARROLL *      CLOUDY    77  64  65 SE24G30   29.82F
CHEROKEE *     CLOUDY    75  66  73 S18G24    29.80F
DENISON *      SUNNY     82  66  57 SE18G26   29.82F HX  85
LE MARS *      CLOUDY    79  64  61 S18G25    29.77F HX  81
ORANGE CITY *  CLOUDY    75  64  69 S15       29.78F
SHELDON *      SUNNY     75  64  69 S16G23    29.77F
SIOUX CITY     SUNNY     84  65  52 S21G28    29.77S HX  86
6HR MIN TEMP:  66; 6HR MAX TEMP:  85;

SPENCER        CLOUDY    76  64  66 SE18G28   29.79F
6HR MIN TEMP:  58; 6HR MAX TEMP:  76; 6HR PCP:  0.31;

STORM LAKE *   CLOUDY    73  64  73 SE18G25   29.81R
$$

IAZ055>058-069>071-079>083-090>094-211900-
   SOUTHWEST IOWA

CITY           SKY/WX    TMP DP  RH WIND       PRES   REMARKS
ATLANTIC *     SUNNY     82  68  61 E16G22    29.83F HX  85
AUDUBON *      SUNNY     81  70  69 SE16      29.85F HX  84
CLARINDA *     MOSUNNY   86  66  51 SW10G21   29.85F HX  88
COUNCIL BLFS * CLOUDY    86  72  62 SE14      29.80F HX  92
CRESTON *      SUNNY     88  66  48 S9G15     29.87F HX  90
HARLAN  *      MOSUNNY   81  68  65 E13G21    29.86F HX  83
LAMONI         CLOUDY    87  68  52 S8        29.88F HX  90
6HR MIN TEMP:  67; 6HR MAX TEMP:  87; 6HR PCP: TRACE;

RED OAK *      MOSUNNY   88  70  55 S12       29.82F HX  92
SHENANDOAH *   PTSUNNY   84  70  61 S8        29.82F HX  88
$$

IAZ047>049-059>061-072>074-084-211900-
   CENTRAL IOWA

CITY           SKY/WX    TMP DP  RH WIND       PRES   REMARKS
AMES           PTSUNNY   75  64  68 SE16G24   29.87F
6HR MIN TEMP:  64; 6HR MAX TEMP:  75;

ANKENY *       MOSUNNY   75  64  69 E14       29.90F
BOONE *        MOSUNNY   73  61  64 SE21G29   29.85F
CHARITON *     CLOUDY    84  68  58 SE13      29.89S HX  87
DES MOINES     CLOUDY    78  65  63 E12       29.88F HX  80
6HR MIN TEMP:  65; 6HR MAX TEMP:  79; 6HR PCP: TRACE;

GRINNELL*      MOSUNNY   73  63  70 E14       29.94F
KNOXVILLE *    MOSUNNY   75  66  73 E10       29.90F
MARSHALLTOWN   CLOUDY    71  59  65 SE15G24   29.89F
6HR MIN TEMP:  63; 6HR MAX TEMP:  71; 6HR PCP: TRACE;

NEWTON *       PTSUNNY   72  63  73 E14G20    29.92F
PELLA *        SUNNY     75  64  69 E7        29.93F
PERRY *          N/A     76  65  69 E17G24    29.86F
$$

IAZ004>006-015-016-023>025-035-036-211900-
   NORTH CENTRAL IOWA

CITY           SKY/WX    TMP DP  RH WIND       PRES   REMARKS
ALGONA *       CLOUDY    70  64  83 S15G26    29.81F
CLARION *        N/A     66  63  88 SE22G28   29.83F
ESTHERVILLE    CLOUDY    69  63  81 SE20G26   29.80F
6HR MIN TEMP:  59; 6HR MAX TEMP:  70; 6HR PCP:  0.33;

FORT DODGE *   PTSUNNY   68  61  77 SE12G21   29.83F
MASON CITY     CLOUDY    68  59  73 SE20G28   29.86F
6HR MIN TEMP:  61; 6HR MAX TEMP:  70; 6HR PCP:  0.21;

FOREST CITY *    N/A     68  54  60 SE15      29.83F
WEBSTER CITY * CLOUDY    66  63  88 S24G36    29.79F
IOWA FALLS *   LGT RAIN  65  61  87 SE15G21   29.89F
$$

IAZ007>011-017>019-026>030-037>042-050>054-066-211900-
   NORTHEAST IOWA

CITY           SKY/WX    TMP DP  RH WIND       PRES   REMARKS
CEDAR RAPIDS   CLOUDY    70  58  65 E7        29.97F
6HR MIN TEMP:  62; 6HR MAX TEMP:  73; 6HR PCP: TRACE;

CHARLES CITY * PTSUNNY   68  63  83 S16       29.90F
CLINTON *      LGT RAIN  71  62  73 W5        30.01R
DECORAH *      CLOUDY    72  57  60 SE12      29.90S
DUBUQUE        RAIN      67  59  75 SE14      29.92F
6HR MIN TEMP:  61; 6HR MAX TEMP:  73; 6HR PCP:  0.03;

MONTICELLO *   CLOUDY    66  61  82 CALM      29.92F
OELWEIN *      CLOUDY    70  63  78 S16G22    29.91F
WATERLOO       CLOUDY    72  58  61 SE13G23   29.88F
6HR MIN TEMP:  62; 6HR MAX TEMP:  73; 6HR PCP:  0.15;

$$

IAZ064-065-067-068-078-211900-
   EAST CENTRAL IOWA

CITY           SKY/WX    TMP DP  RH WIND       PRES   REMARKS
DAVENPORT      LGT RAIN  67  63  87 N8        30.01R FOG
6HR MIN TEMP:  62; 6HR MAX TEMP:  73; 6HR PCP:  0.09;

IOWA CITY      CLOUDY    73  61  65 E8        29.96F
6HR MIN TEMP:  64; 6HR MAX TEMP:  73; 6HR PCP:  0.14;

MT. PLEASANT * MOSUNNY   77  67  71 SE7       29.94F
MUSCATINE *    CLOUDY    68  64  88 N14       29.94F
QUAD CITIES    TSTM      68  62  81 N8        29.99R
6HR MIN TEMP:  63; 6HR MAX TEMP:  76; 6HR PCP:  0.02;

$$

IAZ062-063-075>077-085>089-095>099-211900-
   SOUTHEAST IOWA

CITY           SKY/WX    TMP DP  RH WIND       PRES   REMARKS
BURLINGTON     CLOUDY    74  69  85 VRB3      29.94R
6HR MIN TEMP:  67; 6HR MAX TEMP:  74; 6HR PCP:  0.12;

FAIRFIELD *    CLOUDY    77  66  69 SE15      29.92F
FORT MADISON * MOSUNNY   77  70  78 CALM      29.95R
KEOKUK *       SUNNY     81  68  65 E8        29.92S HX  83
OSKALOOSA *      N/A     78  67  68 E8        29.92S HX  80
OTTUMWA        PTSUNNY   80  67  64 SE8       29.92F HX  82
6HR MIN TEMP:  63; 6HR MAX TEMP:  80; 6HR PCP:  0.06;

WASHINGTON *   MOSUNNY   70  66  88 NE8G15    29.96R
$$

ABBREVIATIONS USED IN REMARKS
   TC - TEMPERATURES IN CELSIUS
  WCI - WIND CHILL INDEX
   HX - HEAT INDEX
  VSB - VISIBILITY
$$





USA.gov is the U.S. government's official web portal to all federal, state and local government web resources and services.